Other Public Products
Issued by NWS Grand Forks, ND

Home | Current Version | Previous Version | Text Only | Print | Product List | Glossary Off
Versions: 1 2 3 4 5 6 7 8 9 10 11 12 13 14 15 16 17 18 19 20 21 22 23 24 25 26 27 28 29 30 31 32 33 34 35 36 37 38 39 40 41 42 43 44 45 46 47 48 49 50

000
FPUS83 KFGF 100331
OPUFGF
PRAIRIE TO PINES WEATHER ROUNDUP
NATIONAL WEATHER SERVICE EASTERN NORTH DAKOTA/GRAND FORKS ND
1000 PM CDT WED JUL 09 2014

 **SATELLITE DATA USED TO AUGMENT SKY COVER AT AUTOMATED STATIONS**
 *****  WEATHER ACROSS EASTERN NORTH DAKOTA  *****

CITY           SKY/WX    TMP DP  RH WIND       PRES   REMARKS
GRAND FORKS    CLEAR     68  52  56 SE5       29.97R
GRAND FORKS AF CLEAR     65  52  64 SE6       29.98S
GRAND CITY NWS   N/A     64 N/A N/A E3          N/A
BUXTON           N/A     68  54  60 E3          N/A
DEVILS LAKE    CLEAR     66  52  59 SE8       29.95S
FARGO          CLEAR     66  51  58 E6        29.98R
WAHPETON ARPT  CLEAR     64  50  59 E5        29.99S
$$

 *****  WEATHER ACROSS CENTRAL AND WESTERN NORTH DAKOTA  *****

CITY           SKY/WX    TMP DP  RH WIND       PRES   REMARKS
JAMESTOWN      CLEAR     65  56  72 SE6       29.97R
BISMARCK       CLEAR     67  60  78 E8        29.95R HAZE
MINOT          CLEAR     66  58  75 E7        29.91S
MINOT AFB      CLEAR     64  62  91 SE7       29.90S
GARRISON         N/A     67  63  87 SE7       29.92S
WILLISTON      CLEAR     75  58  55 SE9       29.85F
DICKINSON      CLEAR     66  57  72 SE10      29.91S
HETTINGER      CLEAR     68  56  65 SE9       29.95S
$$

 *****  OTHER OBSERVATIONS NORTHEAST NORTH DAKOTA  *****

CITY           SKY/WX    TMP DP  RH WIND       PRES   REMARKS
WALHALLA         N/A     61  57  88 S3          N/A
LANGDON        FAIR      55  52  88 SE9       29.97S
CAVALIER       FAIR      64  54  68 SE3       29.97R
GRAFTON        FAIR      63  52  67 SE7       29.97R
CANDO          FAIR      59  55  88 SE8       29.96S
FORT TOTTEN      N/A     64  53  68 E6        29.95
ROLLA          FAIR      63  57  82 S7        29.97R
RUGBY          FAIR      64  57  77 SE8       29.94S
 ***** THE ABOVE OBSERVATIONS ARE NON NWS ARE NOT QUALITY
        CONTROLLED AND MAY MIS-REPORT RAIN FOR SNOW...
$$

 *****  OTHER OBSERVATIONS SOUTHEAST NORTH DAKOTA *****

CITY           SKY/WX    TMP DP  RH WIND       PRES   REMARKS
COOPERSTOWN    NOT AVBL
VALLEY CITY    FAIR      64  55  72 SE5       29.99R
OAKES          NOT AVBL
GWINNER        CLEAR     64  59  82 E6        30.00R
SHEYENNE NWR     N/A     61  55  81 E5        29.95
BUFFALO          N/A     61  53  73 E8          N/A
WYNDMERE       NOT AVBL
 ***** THE ABOVE OBSERVATIONS ARE NON NWS ARE NOT QUALITY
       CONTROLLED AND MAY MIS-REPORT RAIN FOR SNOW...
$$

  *****  WEATHER ACROSS NORTHERN MINNESOTA  *****

CITY           SKY/WX    TMP DP  RH WIND       PRES   REMARKS
FLAG ISLAND    CLEAR     66  54  63 S7        29.96S
WARROAD        PTCLDY    63  55  77 SW5       29.99S
ROSEAU         CLEAR     61  54  77 CALM      29.99R
HALLOCK        CLEAR     61  55  82 SE3       29.98R
THF RVR FALLS  CLEAR     63  54  72 CALM      30.00R
HALSTAD          N/A     63  48  57 SE3         N/A
FOSSTON        CLEAR     57  52  82 CALM      30.01S
BAUDETTE       CLEAR     60  52  74 CALM      30.00R
WASKISH        CLEAR     57  54  88 SE5       30.00R
CROOKSTON      CLEAR     63  54  72 CALM      30.00R
$$
  *****  WEATHER ACROSS CENTRAL AND WEST MINNESOTA  *****

CITY           SKY/WX    TMP DP  RH WIND       PRES   REMARKS
BEMIDJI        CLEAR     57  51  80 CALM      30.01R
PARK RAPIDS    CLEAR     62  53  72 CALM      30.01R
WADENA         CLEAR     59  52  77 CALM      30.01S
DETROIT LAKES  CLEAR     64  55  72 CALM      30.02S
MOORHEAD       CLEAR     66  57  72 E3        30.00R
FERGUS FALLS   CLEAR     64  52  63 E3        30.00R
ELBOW LAKE     FAIR      66  52  59 E3        30.00R
MORRIS MN      CLEAR     63  55  77 E3        30.00R
STAPLES        CLEAR     61  55  82 CALM      30.02R
WHEATON        CLEAR     63  52  67 CALM      30.01R
$$
  *****  WEATHER ELSEWHERE ACROSS MINNESOTA  *****

CITY           SKY/WX    TMP DP  RH WIND       PRES   REMARKS
DULUTH         PTCLDY    61  51  70 CALM      30.02R
INTRNTL FALLS  MOCLDY    54  52  93 CALM      30.00R
ELY            CLEAR     54  46  76 CALM      30.03R
CLOQUET        CLEAR     57  52  82 CALM      30.03R
BRAINERD       MOCLDY    68  56  65 CALM      30.01R
HIBBING        CLEAR     55  52  89 CALM      30.01R
ALEXANDRIA     CLEAR     66  53  63 CALM      30.02R
SAINT CLOUD    PTCLDY    64  58  80 CALM      30.00R
MINNEAPOLIS    PTCLDY    70  55  59 SE6       30.00R
$$

  *****  WEATHER ACROSS SOUTH DAKOTA  *****

CITY           SKY/WX    TMP DP  RH WIND       PRES   REMARKS
SIOUX FALLS    PTCLDY    70  58  65 E3        29.99R
BROOKINGS      NOT AVBL
WATERTOWN      CLEAR     69  55  60 E5        30.01R
HURON          CLEAR     69  59  70 E7        29.96R
SISSETON         N/A     66  58  75 CALM      29.98R
ABERDEEN       CLEAR     64  58  80 E7        29.98R
MITCHELL       CLEAR     72  60  66 S5        29.97R
PIERRE         CLEAR     67  57  70 E6        29.94R
MOBRIDGE       CLEAR     69  60  73 SE9       29.94R HAZE
RAPID CITY     CLEAR     65  56  72 E8        29.97R
$$

  *****  SOME WEATHER IN NEARBY STATES *****

CITY           SKY/WX    TMP DP  RH WIND       PRES   REMARKS
GLASGOW MT     CLEAR     78  54  43 SE12      29.77S
GREAT FALLS MT CLOUDY    81  42  25 SW13      29.80S
CHEYENNE WY    PTCLDY    72  41  32 E5        30.08R
SCOTTSBLUFF NE CLEAR     77  64  64 NE16      29.92R
OMAHA NE       CLOUDY    75  60  59 SE6       30.02R
DES MOINES IA  PTCLDY    73  60  63 S6        30.02R
DAVENPORT IA   CLEAR     66  57  72 CALM      30.04R
CHICAGO IL     CLEAR     68  54  60 E3        30.04R
EAU CLAIRE WI  PTCLDY    64  56  75 E3        30.02R
LA CROSSE WI   CLEAR     67  57  70 E5        30.02R
$$

  *****  SOME NATIONAL WEATHER *****

CITY           SKY/WX    TMP DP  RH WIND       PRES   REMARKS
LA GUARDIA NY  MOCLDY    77  63  61 N8        29.93R
RALEIGH NC     LGT RAIN  75  70  84 S3        30.03R
ATLANTA GA     CLOUDY    77  69  76 SW5       30.06R
NEW ORLEANS LA MOCLDY    75  71  87 SW3       30.06R
OKLAHOMA CITY  MOCLDY    76  69  79 SE6       30.00R
ALBUQUERQUE NM LGT RAIN  79  50  36 N9G28     30.13R
SALT LAKE CITY MOCLDY    83  51  33 S17       29.96R
LOS ANGELES CA CLOUDY    69  62  78 W13       29.91R
BOISE ID       MOCLDY    86  48  26 W5        29.89S
SEATTLE WA     CLEAR     77  56  48 W5        29.95S
$$

*** WEATHER ACROSS MANITOBA...SASKATCHEWAN AND ONTARIO ***
                ***ONTARIO***

CITY           SKY/WX    TMP DP  RH WIND       PRES   REMARKS
GERALDTON      PTCLDY    54  46  76 W5        29.97R
THUNDER BAY    PTCLDY    55  52  88 E3        29.99R
SIOUX LOOKOUT  PTCLDY    48  48 100 S2        29.98S
TORONTO        CLEAR     63  50  63 NW10      30.02R
BIG TROUT LK   CLOUDY    57  50  77 W3        29.86S
PICKLE LAKE    NOT AVBL
DRYDEN         CLEAR     61  46  59 S6        29.98S
KENORA         PTCLDY    63  52  67 S3        29.99R
$$
                *** MANITOBA***

CITY           SKY/WX    TMP DP  RH WIND       PRES   REMARKS
BRANDON        CLOUDY    66  57  72 S6        29.91S
DAUPHIN        CLEAR     66  59  77 S6        29.87R
ISLAND LAKE    CLOUDY    66  54  63 S6        29.83S
PILOT MOUND      N/A     57  54  88 SE8         N/A
THE PAS        MOCLDY    72  63  73 S8        29.72
THOMPSON       PTCLDY    63  61  94 NE3       29.73
WINNIPEG       CLEAR     64  52  63 S6        29.96R
LYNN LAKE      CLEAR     68  57  68 E8        29.72R
CHURCHILL      PTCLDY    50  48  93 NE10      29.78R
GILLAM         MOCLDY    59  57  94 SE3       29.76S
$$
                ***SASKATCHEWAN***

CITY           SKY/WX    TMP DP  RH WIND       PRES   REMARKS
ESTEVAN        PTCLDY    68  61  77 SE6       29.88S SMOKE
KINDERSLEY     PTCLDY    75  57  53 S15G22    29.64S
LLOYDMINSTER   CLOUDY    68  59  73 S5        29.63R THUNDER
PRINCE ALBERT  PTCLDY    70  61  73 SE7       29.70F
REGINA         CLEAR     72  61  68 SE16G22   29.80F SMOKE



USA.gov is the U.S. government's official web portal to all federal, state and local government web resources and services.